Torna al catalogo

THORAD AGENA D DEB

AttivoPO
NORAD 42527·DEBRIS·🇺🇸 United States

Lanciato Apr 8, 1970 da Vandenberg Space Force Base

Loading…

Prossimi Passaggi (prossime 24 ore)

TLE

In scadenzaSource: Space-Track

Epoca: Sep 7, 2026, 16:47 UTC

1 42527U 70025SH  26250.69985692  .00004792  00000-0  14083-2 0  9993
2 42527  99.1345 214.9323 0024956  70.3820 290.0059 14.44066782663319

Traccia THORAD AGENA D DEB in tempo reale con AllMySat

Download on the App Store